RH
80 86 81 85 87 73 68 66 60 65 67 61 55 54 64 81 94 99 99 98 98 96 94 86 77 81 83 72 65 59 54 49 46 47 49 47 43 35 22 16 20 26 29 30 32 30 29 29 29 33 40 42 40 39 38 37 35 32 30 26 21 21 22 21 21 21 20 21 24 27 29 30 32 35 40 43 40 33 25 23 37 58 66 66 65 67 70 69 69 71 72 72 73 73 75 87 93
84 91 91 90 89 85 80 74 66 65 67 65 61 56 66 82 90 98 100 99 99 99 97 87 77 80 81 72 68 59 51 48 47 46 45 45 41 36 26 16 17 24 29 29 30 28 26 26 27 31 37 41 41 39 37 35 34 33 32 27 22 22 22 23 22 21 21 21 21 22 23 24 26 28 31 31 29 26 21 28 51 66 66 67 64 64 65 64 64 65 67 70 71 70 75 90 95
81 89 91 89 86 88 88 83 74 66 61 64 68 64 65 77 87 95 97 98 100 100 97 88 79 82 78 67 66 59 53 48 42 45 46 46 40 35 29 18 18 22 29 29 28 28 26 26 28 31 33 35 38 37 36 34 32 32 30 26 23 23 24 24 24 23 22 22 22 22 23 23 23 24 25 26 26 25 23 33 57 68 67 67 64 65 65 60 60 62 64 67 71 71 79 92 93
78 84 84 83 80 82 84 82 81 76 67 66 71 69 65 73 87 96 94 96 99 100 97 90 84 83 76 68 67 60 59 50 40 46 47 47 42 36 31 21 20 22 28 30 29 30 29 29 29 29 28 28 32 33 34 32 30 28 26 24 24 25 25 25 25 25 24 23 24 24 25 25 26 28 30 31 30 29 27 36 60 71 69 67 64 63 56 51 54 58 60 64 68 73 81 87 90
78 79 78 78 76 75 76 75 76 78 77 75 75 70 66 74 86 95 97 96 99 100 96 92 88 85 79 75 70 62 63 54 41 48 48 46 44 38 32 24 21 21 26 30 30 31 32 31 28 27 25 24 26 29 30 30 29 28 26 26 26 26 27 27 27 28 29 29 28 29 29 30 31 33 34 34 33 31 31 46 68 73 69 66 59 49 44 48 51 55 60 65 70 76 81 80 87
76 75 74 74 72 71 69 66 67 73 77 79 84 78 69 78 86 94 100 98 100 99 96 95 89 84 82 75 70 64 63 58 44 46 49 44 45 42 34 27 22 21 24 29 31 32 32 31 29 27 24 24 24 26 27 29 29 29 29 28 28 29 29 30 32 34 34 34 34 34 34 34 35 36 36 36 36 34 41 60 74 72 69 66 56 43 39 43 46 51 59 65 68 76 84 85 91
71 71 70 68 65 65 63 61 64 72 77 80 90 84 72 85 92 96 101 99 100 99 98 96 87 81 79 75 70 65 62 61 47 41 49 43 43 46 37 29 23 20 20 26 30 30 32 31 29 27 25 24 24 25 26 29 30 31 31 31 32 31 32 34 35 36 35 35 34 34 35 36 38 38 39 38 37 41 53 68 72 71 71 68 57 41 32 35 42 50 56 62 63 69 83 88 93
65 64 64 63 60 58 57 57 61 69 76 76 85 88 85 96 100 99 100 99 98 97 100 95 88 80 74 73 69 68 66 62 50 41 48 43 40 47 41 33 25 19 17 21 27 28 31 30 29 28 26 25 25 26 27 30 32 33 33 32 33 32 32 31 32 33 32 32 32 34 36 38 40 41 41 39 40 48 60 68 70 71 72 69 55 34 27 35 42 48 53 58 60 62 74 84 87
63 58 56 57 56 51 49 52 59 64 68 70 82 94 96 100 100 99 99 99 97 96 101 95 88 79 69 69 69 70 67 63 54 44 48 41 38 47 44 38 29 21 16 17 23 26 28 28 28 28 27 26 25 26 27 30 32 32 33 32 32 29 27 27 30 32 32 35 38 39 39 40 41 41 40 39 43 53 64 66 67 72 73 70 52 30 30 39 43 46 48 51 56 56 63 77 80
61 53 49 49 49 47 45 48 54 57 60 69 84 91 91 97 98 99 99 99 99 98 100 92 82 75 66 67 69 67 62 61 56 47 48 39 38 47 46 43 34 25 18 15 19 22 25 25 26 28 28 28 26 26 28 30 31 31 30 29 27 24 23 24 28 31 33 37 43 46 45 44 42 42 42 44 50 58 64 59 62 73 74 69 50 28 30 40 45 47 46 47 52 53 56 65 72
56 49 44 41 41 43 45 47 50 53 55 68 84 80 81 96 99 99 100 99 100 99 97 90 80 72 64 62 66 64 57 58 55 48 45 37 39 47 46 45 40 31 24 16 16 18 21 22 24 27 27 27 28 28 29 30 29 28 26 24 22 21 21 22 24 28 32 35 39 45 48 48 46 48 49 51 55 57 55 47 54 72 73 67 48 26 27 35 42 45 44 46 48 50 51 52 61
49 44 41 36 35 37 41 45 46 48 47 65 87 79 78 96 100 99 100 100 100 98 94 88 80 71 64 62 65 66 59 57 56 48 42 39 42 47 46 46 44 38 31 23 17 16 17 19 22 25 25 26 27 28 27 26 25 24 22 20 20 20 21 21 23 26 29 32 35 40 47 51 52 54 56 55 57 52 44 41 50 69 74 66 50 30 26 30 37 42 42 41 41 42 44 45 51
43 40 39 36 32 32 36 39 40 43 41 60 87 81 78 92 100 100 99 100 100 99 96 89 79 70 66 65 71 73 65 58 55 49 42 41 43 45 46 46 48 43 37 32 24 19 17 16 18 21 23 23 23 23 22 21 21 20 19 19 19 20 21 22 23 25 27 31 34 39 45 49 52 55 55 51 50 43 40 48 55 67 75 69 58 42 32 32 39 43 42 39 34 33 36 40 44
41 38 38 34 30 30 32 34 34 38 39 52 70 70 77 91 98 98 98 100 98 100 98 93 81 71 75 77 81 83 71 59 53 49 46 44 41 42 45 47 50 48 44 39 34 28 23 20 20 20 20 21 20 20 20 19 19 19 18 18 20 21 22 23 24 26 27 30 32 37 41 43 48 51 49 43 41 37 44 58 59 68 77 73 66 56 44 41 45 46 46 43 35 32 34 36 41
38 37 37 33 29 29 29 31 31 33 36 44 55 64 80 92 93 90 95 101 97 99 99 96 85 75 80 79 83 90 76 59 51 51 52 47 43 43 44 47 49 50 48 45 43 38 34 30 28 28 26 26 25 25 25 24 22 21 22 22 24 25 26 27 27 28 29 30 30 32 34 36 40 41 42 43 42 42 51 61 61 67 76 77 73 64 55 52 52 50 50 48 41 36 35 37 40
35 35 36 33 31 32 31 30 30 30 31 36 48 66 81 88 90 86 94 101 96 99 100 98 89 78 78 74 80 89 77 62 54 54 58 53 49 49 46 46 48 49 49 47 47 45 42 39 37 36 34 33 33 33 34 33 30 29 30 30 32 33 33 34 34 35 35 34 34 33 32 31 32 32 35 39 43 46 53 60 65 67 69 76 78 72 66 63 59 54 53 51 47 41 38 40 41
33 34 34 34 35 37 36 34 31 30 29 31 41 63 82 88 93 92 96 100 96 98 100 98 92 81 81 81 82 85 81 75 65 59 61 60 58 57 51 48 49 48 48 48 47 47 46 44 43 42 40 40 39 38 39 39 38 37 37 39 40 41 41 41 42 43 43 43 42 41 39 36 33 31 31 32 37 41 44 52 63 68 65 66 74 78 75 72 69 63 58 52 51 46 40 41 42
34 35 35 36 39 41 41 40 36 32 30 29 34 53 78 90 93 93 97 100 99 100 100 99 96 85 83 91 89 85 89 88 79 70 66 66 66 64 58 52 52 50 47 48 47 47 45 45 45 45 45 46 46 45 44 45 45 43 43 44 46 46 47 47 48 49 49 49 49 48 46 43 41 38 35 33 35 36 37 41 49 61 65 61 66 75 77 77 76 74 66 52 51 51 43 40 41
35 36 36 37 41 44 45 45 43 39 34 31 31 39 61 79 85 87 89 91 92 94 98 100 99 93 88 94 95 89 90 90 89 82 68 64 66 67 66 60 57 54 49 46 46 46 45 45 45 45 47 48 50 51 51 52 52 51 49 50 52 53 54 54 54 54 54 53 53 52 50 47 46 44 42 40 40 38 35 36 38 46 56 59 60 63 66 69 72 78 75 58 52 51 47 40 39
37 36 35 35 38 42 45 48 48 45 40 35 33 33 41 57 68 74 76 76 77 81 91 98 99 99 93 90 92 88 88 91 93 90 75 66 63 64 68 65 58 55 52 48 46 46 45 46 46 46 47 49 52 54 56 56 57 57 55 55 57 58 59 59 59 59 58 58 57 56 55 53 51 49 48 45 45 43 39 37 37 36 42 49 52 55 55 55 63 78 82 70 61 55 49 44 40
38 36 34 33 35 39 43 49 52 50 46 41 39 36 35 40 48 56 62 65 68 74 87 98 100 100 97 91 87 83 87 93 94 94 88 77 68 62 64 65 61 59 58 54 50 48 47 46 47 49 50 50 51 55 58 59 59 59 57 58 59 59 60 60 61 61 62 62 61 60 59 58 58 57 56 53 49 46 43 42 40 34 34 37 40 50 52 47 51 70 87 83 73 66 56 49 44
40 38 36 34 35 38 43 50 53 52 50 47 45 42 38 36 38 44 51 57 62 68 80 94 100 100 99 96 92 87 87 92 95 97 95 86 77 66 62 66 65 63 60 56 54 52 50 49 49 51 54 54 54 55 58 59 61 60 58 58 58 59 59 59 61 62 62 63 64 64 63 63 65 67 67 65 61 55 51 48 44 36 34 34 33 40 48 50 47 56 79 84 79 77 69 62 52
44 43 40 39 39 42 47 53 56 56 54 51 49 46 42 38 37 40 46 54 60 63 71 85 97 100 98 96 97 95 92 91 95 100 96 88 85 75 65 65 64 60 57 55 57 57 55 54 52 51 55 57 57 56 56 57 59 60 59 58 57 58 59 58 59 61 62 63 65 67 69 70 71 73 76 76 73 67 63 58 52 43 39 38 36 36 40 50 53 52 62 65 69 80 80 76 66
46 47 45 44 44 47 51 55 58 59 58 55 53 51 48 43 38 38 40 48 56 59 63 73 89 99 99 97 96 97 97 93 95 101 98 90 88 82 70 65 64 64 63 61 60 60 58 57 55 54 55 56 57 56 56 56 57 57 58 58 57 56 57 57 58 58 60 61 64 68 72 75 76 77 79 78 76 72 70 68 63 55 49 46 40 38 38 45 52 54 60 58 56 67 74 78 77
46 48 47 46 48 50 53 55 58 59 59 56 54 53 53 50 44 40 37 40 49 54 55 61 77 92 96 99 99 98 99 98 97 100 99 92 87 86 79 72 72 75 76 71 67 65 60 59 59 59 59 56 55 55 55 55 56 56 55 57 57 55 54 56 58 57 56 58 62 68 73 76 77 80 81 79 74 70 70 70 70 67 64 62 55 47 42 47 52 52 60 64 54 57 67 70 76
46 49 47 46 48 51 53 55 58 59 58 56 54 54 54 54 52 48 42 37 42 48 49 51 63 78 83 89 98 100 100 100 100 99 96 91 87 88 86 81 77 77 78 77 77 74 68 63 61 62 63 60 58 55 55 54 54 55 54 54 54 54 52 52 55 56 55 55 59 66 71 74 77 80 81 78 73 69 68 69 70 72 75 77 76 69 56 52 55 51 52 58 54 54 66 68 72
47 48 46 46 47 48 51 53 55 57 58 56 53 53 55 55 55 55 53 45 40 42 45 46 51 63 68 72 82 89 91 92 94 96 97 96 94 94 91 86 81 77 77 79 81 81 77 71 64 63 63 62 61 58 56 54 52 54 55 53 52 52 51 50 52 54 56 56 59 63 68 72 77 79 78 75 72 69 68 68 69 72 78 83 86 86 78 66 59 56 54 58 56 54 64 68 70
48 48 47 47 47 47 48 49 50 53 57 57 53 53 55 56 58 58 59 55 45 40 42 44 45 52 55 55 60 66 69 71 75 81 89 94 98 99 98 93 87 85 83 81 79 80 81 78 73 71 66 62 60 60 58 54 52 56 56 50 49 51 51 50 50 53 56 58 61 64 69 73 76 79 77 73 70 69 68 68 69 71 76 83 86 88 89 83 73 66 65 69 67 58 61 67 68
50 49 47 48 48 48 48 48 48 49 54 57 55 53 53 55 58 59 60 60 53 45 43 42 44 46 47 45 46 48 50 52 56 61 66 73 80 88 95 96 94 93 91 87 85 86 88 86 84 83 79 72 67 64 60 55 55 59 57 49 47 52 52 50 50 52 55 58 62 67 71 73 75 79 79 75 70 65 65 67 72 75 77 82 88 88 89 90 85 78 72 74 76 64 57 65 67
52 50 49 49 50 50 49 49 49 49 52 55 55 52 51 52 55 58 59 59 57 52 48 43 42 44 45 43 40 39 40 42 46 50 52 55 64 73 80 85 87 89 88 89 91 92 94 94 93 94 93 90 83 76 68 62 60 61 60 57 54 55 55 54 52 51 53 56 61 65 68 70 72 75 78 80 76 67 64 69 81 87 87 87 89 89 88 87 86 85 82 77 79 71 57 62 66
52 51 51 51 51 50 49 50 51 51 50 53 54 51 48 48 52 56 58 59 58 56 54 50 44 42 45 44 40 38 38 40 44 47 48 48 56 65 69 72 73 75 79 86 91 91 89 91 93 97 99 98 95 91 84 77 73 70 67 66 65 63 61 60 59 58 57 58 62 66 70 73 72 73 77 79 78 74 70 72 84 91 90 90 89 87 81 77 74 77 83 82 81 80 69 63 65
52 52 51 50 50 49 48 51 52 52 51 51 54 52 46 45 49 55 57 60 59 57 56 56 52 45 43 43 43 42 40 41 43 45 45 45 48 52 57 63 64 69 76 80 85 86 87 84 83 88 92 96 98 93 89 89 87 82 77 73 71 69 68 66 68 68 66 70 80 84 85 85 81 80 80 78 75 75 76 77 81 86 88 88 83 73 64 61 64 66 71 79 83 86 80 66 65
51 51 49 49 50 49 49 51 51 51 52 51 53 52 47 44 47 53 56 59 62 60 57 57 59 55 48 44 44 44 43 43 43 42 43 44 47 46 46 52 55 61 73 79 77 78 84 82 79 80 81 90 99 93 90 94 92 88 85 83 80 76 74 71 70 71 75 83 89 90 91 91 90 91 90 87 78 73 79 81 79 83 87 77 62 57 60 64 73 76 73 77 81 87 85 70 66
51 52 51 51 52 51 51 51 49 48 49 51 54 51 47 45 46 51 55 57 62 63 61 57 57 60 56 49 43 42 44 45 43 41 41 41 46 49 50 52 55 56 65 75 77 75 78 82 86 87 83 89 96 95 96 98 96 94 93 92 92 89 81 73 70 74 82 86 86 89 90 89 92 97 98 94 88 84 85 82 80 84 76 57 50 62 77 81 85 89 86 81 80 87 88 73 70
53 56 53 52 53 53 53 51 49 48 45 47 52 49 45 46 45 48 54 57 60 63 63 58 55 57 61 56 45 40 42 44 42 39 38 37 40 49 52 52 58 62 62 64 70 75 80 87 93 95 93 90 90 92 96 98 98 96 96 93 93 96 86 73 72 77 85 88 88 93 93 89 91 96 97 96 94 93 91 90 87 78 62 54 64 82 94 93 93 97 95 91 86 89 88 75 76
56 55 53 52 54 54 54 54 51 52 48 44 49 49 44 46 45 48 56 59 62 65 64 60 55 55 61 63 52 41 40 40 40 37 35 33 33 43 53 56 65 74 72 63 59 70 84 93 95 97 97 92 89 90 87 91 94 88 90 88 88 96 88 73 73 80 92 94 87 90 95 91 87 89 94 96 95 93 91 89 79 64 58 66 80 91 95 96 97 99 99 98 95 92 87 81 83
58 56 53 50 54 55 56 58 53 52 54 48 47 47 44 45 46 51 62 65 66 70 66 59 56 54 61 69 62 48 39 36 38 35 31 28 27 35 51 64 73 78 79 72 65 67 74 86 94 93 92 91 91 91 82 82 87 83 82 80 84 92 86 78 80 84 93 94 86 87 91 86 79 81 90 93 89 81 71 61 54 54 57 63 76 85 88 93 95 94 96 98 97 94 90 86 84
62 61 55 51 54 54 56 59 55 52 53 50 48 47 44 44 47 56 68 71 70 71 66 60 56 54 58 65 66 58 43 36 38 35 27 23 23 30 43 59 70 77 79 76 72 65 57 72 90 86 83 90 94 92 86 80 81 86 85 80 84 89 86 84 83 81 84 89 92 88 83 79 76 80 86 80 66 51 43 42 46 49 51 56 66 72 75 79 81 86 92 93 90 86 84 83 80
63 63 58 55 55 53 55 57 58 56 50 46 47 45 44 46 51 61 71 71 68 68 66 63 58 56 56 57 61 63 53 40 38 37 29 20 19 23 33 47 60 70 74 75 75 67 51 59 77 76 73 82 87 84 83 80 82 94 93 82 84 88 91 90 84 82 83 88 93 86 80 77 76 80 72 52 39 37 39 43 44 42 49 57 54 50 56 63 69 75 75 69 67 66 68 74 75
57 64 60 57 54 54 58 59 60 56 48 46 46 41 43 51 58 66 70 68 65 65 65 65 61 57 56 55 57 61 60 50 41 38 32 22 18 18 22 34 47 60 71 79 82 71 55 56 67 68 67 73 79 79 82 84 84 94 95 85 84 87 91 92 87 85 85 86 86 82 80 77 75 72 51 23 21 40 46 35 26 26 38 49 43 32 33 39 44 43 35 30 32 36 38 45 49
54 63 60 59 58 56 57 57 54 50 50 50 43 38 47 59 66 69 68 65 64 63 63 62 58 55 54 55 57 59 60 58 50 40 33 25 19 15 14 21 37 59 73 79 82 77 70 74 78 77 75 75 78 77 79 84 82 89 93 87 88 89 86 84 82 83 87 89 87 83 76 67 60 49 31 16 17 36 43 26 13 11 20 32 34 24 14 14 15 12 11 14 17 19 18 18 21
58 62 61 64 64 59 55 52 48 47 50 48 42 47 58 66 70 71 66 62 61 61 61 58 55 56 56 53 55 59 59 60 56 43 32 27 21 15 13 15 25 48 66 70 74 80 81 81 85 89 84 78 81 81 78 80 83 91 89 81 87 89 83 83 86 89 94 94 88 78 59 40 32 28 27 25 24 30 30 17 8 6 9 17 21 15 8 7 7 6 8 12 14 14 11 10 12
62 60 63 64 60 58 52 48 47 43 41 44 50 59 66 69 69 68 63 59 59 62 62 58 55 59 60 56 56 60 61 61 57 45 33 28 24 16 15 19 19 30 51 65 73 80 81 76 77 86 83 80 88 89 83 80 86 95 91 81 80 82 83 87 92 97 97 90 78 55 29 18 20 24 27 24 21 22 16 8 7 6 6 10 11 10 7 6 7 7 8 9 12 10 8 9 9
61 58 60 58 54 52 44 44 42 34 36 50 60 61 63 65 65 63 60 56 59 63 64 61 59 60 61 60 62 63 62 61 58 46 34 30 25 17 20 26 23 25 42 59 70 77 81 77 76 81 80 81 86 85 83 83 86 94 93 81 72 73 79 82 88 96 89 72 52 25 12 18 23 21 17 10 9 11 8 6 6 6 7 7 7 8 7 7 8 7 8 8 8 8 8 9 8
57 54 53 51 53 48 38 37 32 28 42 58 60 58 61 62 62 63 59 57 60 60 61 61 62 63 62 62 65 64 61 61 60 49 35 31 25 17 27 34 30 32 39 45 54 64 69 70 72 75 73 72 74 75 78 77 82 93 86 70 64 67 73 77 84 85 68 45 26 12 17 30 26 14 7 5 5 5 5 6 6 7 8 7 7 8 7 8 8 7 8 8 8 9 8 8 8
47 45 47 50 52 44 35 30 26 35 49 53 54 57 59 59 61 62 60 61 61 56 56 57 58 61 62 62 64 63 60 58 60 51 36 33 26 18 31 41 36 36 36 33 39 48 54 57 60 63 64 64 61 61 63 62 69 78 68 58 63 70 75 78 75 60 39 25 16 13 26 33 21 8 4 5 6 6 6 7 7 7 7 8 8 8 8 8 8 9 8 8 9 9 8 9 9
33 38 46 50 49 40 31 24 24 41 49 48 55 59 57 58 60 60 62 64 59 53 52 52 53 56 59 62 61 61 60 55 57 53 38 33 27 20 35 46 37 32 28 28 38 45 48 51 54 56 57 57 55 55 57 58 60 64 63 67 75 76 73 64 48 31 19 18 18 15 20 21 11 4 5 6 5 6 7 6 7 7 8 8 8 8 8 8 8 8 8 8 9 9 9 9 9
24 34 40 43 44 35 28 21 23 42 51 50 54 55 55 57 58 59 63 65 58 49 49 48 48 50 52 57 58 58 58 54 55 53 40 33 27 27 42 47 34 26 21 21 35 46 49 50 50 51 53 55 57 59 61 63 63 66 70 72 68 57 46 33 22 17 16 19 19 11 8 7 5 5 6 6 6 6 6 7 7 8 8 8 8 8 8 8 8 8 8 9 8 8 9 9 9
21 30 32 35 39 35 28 20 20 35 46 51 51 50 53 56 57 59 61 65 57 46 44 44 44 46 46 49 52 55 56 53 55 52 40 32 28 35 52 50 34 25 19 13 18 30 41 48 48 47 52 57 57 54 54 55 54 53 51 46 38 29 22 18 16 15 16 16 12 6 4 5 5 5 6 6 6 6 6 7 8 8 8 8 8 8 8 8 9 8 9 9 9 9 9 9 9
20 29 33 35 37 34 28 20 23 32 41 50 49 46 50 53 57 57 57 61 54 43 44 45 44 46 45 44 47 52 54 53 53 50 42 30 28 45 62 56 38 29 23 15 10 10 18 33 42 42 46 51 49 42 37 35 32 31 29 26 23 21 19 17 14 12 11 9 5 4 5 5 5 5 6 6 6 6 7 8 8 8 8 8 9 9 9 9 9 9 9 9 9 9 9 9 9
18 26 29 31 33 31 28 26 32 39 46 49 42 39 44 48 53 56 56 56 48 42 47 48 48 47 44 41 44 50 53 53 51 48 42 28 30 54 63 52 41 33 29 22 13 7 6 13 24 32 37 41 41 38 32 28 26 25 25 25 23 22 19 15 11 8 6 5 5 5 5 5 5 6 6 6 6 7 7 7 8 8 8 8 9 8 9 9 9 9 9 9 9 9 9 9 9
19 23 19 24 30 30 32 34 35 40 47 43 31 34 43 47 55 58 56 51 44 42 47 48 49 49 48 45 46 49 52 54 51 47 40 27 34 58 60 50 46 37 30 24 14 10 7 6 9 14 20 25 29 32 32 31 31 30 29 27 25 22 19 14 9 6 5 5 5 5 5 6 6 6 6 7 7 7 8 8 8 8 8 8 8 8 9 8 9 9 9 9 9 9 9 9 9
25 23 17 23 31 33 35 38 36 36 40 33 23 31 44 50 57 58 51 46 43 43 43 44 47 50 53 52 51 52 53 55 53 47 41 31 38 57 58 51 48 38 27 18 12 11 9 8 7 6 8 10 12 15 18 20 22 24 25 23 21 18 14 10 6 5 5 5 5 5 6 6 6 6 7 7 7 8 8 8 8 8 8 8 8 8 9 8 9 9 9 9 9 9 9 9 10
28 25 19 21 26 28 29 34 37 32 28 24 22 31 45 51 54 53 48 45 45 45 41 40 43 47 51 53 53 54 53 54 54 49 42 37 40 48 48 44 41 33 24 14 11 11 10 10 10 8 8 8 7 7 7 8 9 9 11 11 10 9 7 5 5 4 5 5 5 5 5 6 6 7 7 7 8 8 8 8 8 8 8 8 8 8 8 8 8 8 9 9 9 9 9 9 10
24 23 21 21 23 25 23 26 32 28 22 23 24 31 44 52 53 51 48 46 47 46 41 39 42 43 47 52 53 55 55 53 54 51 45 41 41 38 34 32 28 22 18 14 12 12 11 11 11 10 11 10 10 10 9 9 9 8 8 7 7 6 6 6 5 5 6 5 6 6 6 7 7 7 8 8 8 8 8 8 8 8 8 7 8 8 8 8 8 8 8 8 9 9 9 9 9
19 19 21 21 22 24 23 23 26 26 27 30 30 37 48 53 50 48 47 48 49 47 42 41 44 42 43 50 53 55 55 52 52 54 49 43 42 37 27 23 19 16 14 12 11 12 11 12 11 11 11 11 11 10 10 11 10 10 11 10 10 9 8 8 7 7 7 7 7 7 7 7 7 8 8 7 8 8 7 7 7 7 7 7 7 7 8 8 8 8 8 8 8 8 8 8 8
17 19 22 21 18 19 23 25 26 27 31 35 38 46 52 51 48 47 47 48 50 48 43 41 44 44 43 47 50 52 54 52 51 54 53 46 41 37 28 19 15 14 13 12 11 11 11 11 11 11 11 11 11 11 11 11 11 11 11 10 10 10 9 10 9 9 9 9 9 8 8 8 8 8 8 8 8 7 7 8 8 8 8 8 8 7 7 8 7 7 7 8 8 8 9 9 10
18 19 21 21 20 21 25 28 26 26 33 42 47 51 52 51 50 48 45 46 48 49 44 39 39 43 45 45 45 46 50 53 52 52 54 51 44 39 31 22 16 14 13 13 13 12 11 11 11 11 11 11 11 11 11 11 11 11 11 11 11 11 11 11 10 10 10 10 9 9 9 9 8 8 8 8 8 8 8 8 7 8 8 8 8 8 8 9 9 10 11 12 14 15 17 18 20
Wind_Speed
7 7 6 6 5 2 3 4 5 7 7 7 7 6 6 6 5 8 11 14 14 16 18 17 16 14 11 9 9 9 10 10 8 9 11 12 12 10 10 14 14 12 9 9 12 12 11 11 10 10 11 12 12 14 15 15 15 14 13 13 13 13 12 12 12 12 11 11 11 10 10 9 10 9 9 8 7 7 6 6 6 6 6 5 4 3 2 2 2 3 4 5 6 7 7 5 7
9 9 9 9 7 4 3 2 4 5 6 6 5 6 7 6 6 7 10 14 17 18 20 19 17 14 12 11 10 9 9 10 9 9 10 12 13 12 11 13 14 11 9 9 11 12 11 11 10 10 11 12 13 13 14 15 15 14 13 12 11 11 11 11 11 11 11 10 10 10 9 9 9 9 9 8 7 6 6 6 6 7 6 5 5 4 3 2 2 2 3 4 5 6 5 3 7
9 9 9 9 7 6 6 3 3 4 5 5 4 7 7 6 5 5 5 13 19 20 21 20 17 15 13 12 11 9 9 9 10 9 9 11 12 13 12 13 14 10 8 8 10 11 12 11 10 10 10 12 13 13 14 14 14 14 13 11 11 10 10 10 10 10 10 9 9 9 8 8 9 9 8 7 7 6 6 5 6 7 7 6 5 5 4 3 3 2 2 3 4 4 3 3 7
8 9 9 8 7 7 8 7 5 3 4 5 5 6 6 6 4 3 3 12 18 20 22 20 18 15 13 13 11 10 9 8 10 9 9 11 11 12 14 14 14 10 7 7 9 10 11 11 10 9 10 11 13 14 14 13 13 13 12 11 11 10 10 9 9 9 9 8 8 7 7 8 8 8 7 7 7 6 6 5 6 7 6 6 6 5 5 4 4 2 2 2 2 2 2 3 6
9 10 10 8 7 8 8 8 7 4 2 3 4 5 5 5 5 5 6 13 18 21 22 21 19 15 14 13 11 11 9 7 9 10 9 12 12 11 13 14 13 10 7 8 9 10 10 10 10 9 10 10 11 12 13 12 12 11 11 10 10 10 10 9 9 8 8 7 7 6 6 6 7 7 7 7 7 6 6 6 6 6 6 6 6 6 6 5 4 2 1 2 1 2 2 2 5
11 11 11 9 8 8 7 8 9 7 3 3 3 4 4 6 7 7 9 14 21 23 23 22 20 17 15 12 10 9 8 7 8 10 8 10 13 10 12 14 13 10 8 8 9 9 9 9 9 9 10 10 9 10 12 12 11 10 10 10 10 10 9 9 8 8 7 6 6 5 5 5 5 6 6 6 6 6 6 6 6 6 6 7 7 7 6 5 4 3 2 2 1 1 2 2 5
12 11 10 9 9 8 7 8 10 9 6 5 4 3 5 7 9 10 9 15 23 24 24 23 19 17 16 13 10 8 8 7 5 8 7 7 13 11 11 14 12 10 8 9 9 9 9 8 8 9 10 10 10 9 10 11 11 10 10 10 9 9 8 8 8 7 7 6 5 4 4 4 5 5 5 6 6 7 6 6 7 7 6 7 7 7 6 5 4 4 3 3 2 1 1 1 4
12 11 10 10 9 8 8 8 9 9 8 6 5 2 7 10 13 11 8 17 24 23 25 21 18 18 16 15 12 9 9 7 3 7 8 6 13 12 10 13 12 10 8 8 8 8 8 7 8 8 9 10 10 10 10 11 10 10 9 9 9 8 8 8 8 8 8 7 6 6 5 5 5 5 6 6 6 6 6 7 7 6 6 6 7 7 7 6 5 5 5 4 3 3 2 0 3
11 11 11 9 8 8 9 9 8 8 8 7 7 4 5 10 15 14 11 20 24 22 24 20 19 18 16 16 12 11 10 8 5 7 8 6 12 13 10 12 11 10 8 8 8 8 8 7 8 7 8 10 10 10 10 10 10 9 9 8 8 8 8 8 8 8 9 9 9 8 8 7 6 6 7 7 6 6 6 7 7 6 6 6 6 7 7 6 6 6 5 4 3 4 3 1 1
10 10 10 8 7 8 9 8 8 8 8 8 8 8 3 5 12 16 16 21 24 22 22 19 19 17 16 16 13 12 11 10 8 8 8 7 12 13 12 12 10 9 9 8 7 8 8 8 8 7 7 8 9 9 9 9 9 9 8 8 8 8 8 8 9 9 9 10 10 10 9 8 8 7 7 7 6 6 6 6 6 6 6 6 7 8 8 7 6 5 4 4 3 3 3 2 1
8 8 8 8 7 8 8 8 8 8 9 8 7 8 10 0 10 16 20 22 23 21 19 19 19 16 15 15 12 11 11 11 10 9 8 7 11 13 12 13 10 8 8 9 8 8 8 8 8 7 6 7 8 9 9 9 8 8 8 8 8 8 8 8 9 9 9 9 10 10 9 9 8 7 7 7 6 6 5 6 6 6 6 6 7 8 8 7 6 5 4 4 3 3 2 2 2
8 7 7 6 6 7 8 8 8 8 9 10 7 8 12 4 9 16 21 20 21 20 19 19 19 17 15 13 12 10 10 12 10 8 8 8 10 11 11 13 11 8 8 8 8 9 8 8 8 7 7 7 7 8 8 9 9 8 8 8 8 8 8 8 9 9 9 9 9 9 9 8 8 7 7 6 5 5 5 5 6 6 6 6 7 8 8 7 6 5 5 4 4 3 3 3 3
7 7 6 6 6 7 8 8 8 9 10 11 9 8 11 7 6 14 18 20 20 18 18 17 18 18 14 12 12 11 11 12 12 8 7 9 10 10 10 11 12 9 8 8 9 9 9 9 9 8 8 8 7 7 8 8 9 9 8 8 8 8 9 9 9 9 9 9 9 9 8 7 7 7 6 6 5 5 5 6 5 5 6 6 6 7 7 6 6 6 5 5 5 5 4 3 3
7 7 7 7 7 8 8 8 7 8 10 12 11 10 9 8 7 9 13 19 19 16 16 16 17 17 15 13 12 11 12 12 13 9 7 8 8 9 10 10 11 10 8 8 8 9 9 10 10 10 9 9 8 8 8 7 8 9 9 9 9 9 10 10 10 10 10 9 9 8 7 7 6 6 6 6 5 5 6 6 5 5 6 6 5 5 6 5 5 5 5 4 5 5 5 4 4
8 8 8 8 8 9 9 8 8 8 10 13 14 13 9 8 8 6 7 11 14 13 14 16 17 17 17 16 13 12 12 13 13 11 9 8 7 8 9 9 10 10 9 8 8 8 8 9 11 10 10 10 9 9 9 7 8 9 10 10 11 11 11 11 11 10 9 9 8 8 7 6 5 5 5 5 5 5 6 6 6 5 6 5 5 5 5 5 4 4 4 4 4 4 5 5 4
10 10 10 9 11 12 12 10 9 10 10 12 15 15 11 9 8 7 6 6 9 8 11 14 16 16 14 13 14 14 14 13 13 12 11 9 8 7 8 9 9 9 8 8 8 8 7 8 9 9 8 9 9 9 9 8 8 9 10 11 12 12 12 12 11 10 9 8 8 7 7 6 5 5 4 4 4 4 5 6 6 5 5 5 5 5 5 4 4 4 4 4 4 4 4 5 5
12 12 12 12 14 15 15 13 12 12 11 12 14 16 14 11 10 10 8 5 6 4 8 11 12 14 12 10 13 17 16 13 13 13 12 11 10 9 9 9 9 9 8 8 8 8 7 7 8 7 7 7 7 7 8 8 7 8 9 10 11 11 11 11 10 10 9 8 7 7 7 6 5 5 4 4 4 4 3 4 4 5 5 4 4 4 4 4 4 4 4 3 3 3 3 5 5
14 15 15 15 17 17 17 16 14 13 12 13 13 15 16 14 12 12 10 7 5 3 4 8 10 13 13 10 12 16 16 15 15 15 14 13 12 11 10 10 9 9 9 8 8 8 7 6 6 6 6 6 6 6 6 6 6 6 7 8 9 9 9 9 9 9 8 8 7 7 6 6 5 5 5 5 5 4 3 2 2 3 4 4 3 3 3 3 4 3 3 3 3 3 3 4 5
16 17 17 18 20 20 18 18 17 15 14 14 13 13 14 14 14 14 13 10 7 5 1 5 9 12 12 11 12 14 14 14 15 16 16 14 14 13 11 10 9 9 8 7 7 7 7 6 6 5 5 4 4 4 4 5 5 5 6 7 7 8 7 7 7 7 7 7 6 6 5 5 5 4 4 5 4 3 3 3 2 1 2 4 3 2 2 3 3 3 2 3 3 3 3 4 5
17 19 20 21 22 22 20 20 19 17 15 14 14 13 13 13 13 15 14 12 10 8 5 2 6 9 11 12 12 12 11 12 14 15 15 13 14 13 12 11 10 9 7 6 6 6 7 7 6 5 5 4 3 3 3 3 4 3 4 5 5 5 5 5 5 5 5 5 5 4 4 4 4 4 4 4 3 3 3 3 2 1 1 2 3 2 2 2 3 2 2 2 2 2 3 4 4
18 19 21 22 23 23 21 21 20 19 17 15 15 14 13 12 12 13 13 12 11 10 9 4 4 7 10 12 13 12 11 11 12 14 14 12 14 13 12 11 8 8 7 7 7 7 6 6 7 6 5 4 3 3 2 2 2 2 2 3 3 3 3 3 3 3 3 3 3 3 4 4 4 5 4 4 3 3 3 4 3 1 1 1 2 2 1 2 2 2 2 2 2 2 3 3 3
19 19 21 22 24 23 21 21 21 20 19 17 16 15 14 13 12 12 12 12 11 10 10 6 3 7 10 11 13 13 12 12 11 13 13 12 14 13 12 11 9 9 9 8 8 7 7 6 7 7 6 5 4 3 3 2 2 1 1 1 0 0 0 0 0 1 1 2 2 3 4 5 5 5 6 6 5 5 5 5 4 2 2 2 2 1 1 1 2 2 2 2 2 2 2 2 3
20 20 21 23 25 24 22 21 21 21 21 20 18 17 15 14 13 11 10 11 11 10 9 7 3 5 10 10 11 13 14 13 12 13 14 14 14 13 13 13 12 12 11 10 9 9 8 7 7 6 7 6 5 4 4 4 4 3 3 2 2 2 2 2 2 2 2 2 2 3 5 6 6 6 6 7 7 7 7 7 6 4 4 4 4 3 2 1 1 2 2 2 2 2 2 2 2
19 20 21 24 25 24 23 22 22 22 22 22 21 19 18 16 14 11 9 9 10 10 9 7 6 5 7 11 12 14 15 14 13 14 15 15 15 14 13 12 11 11 10 10 10 10 9 8 7 7 7 7 7 6 5 6 6 5 5 4 4 4 4 4 4 4 3 3 3 4 5 6 7 7 7 7 7 7 6 7 7 7 6 5 5 4 4 3 2 2 2 3 3 2 3 3 2
18 20 21 23 26 26 25 24 23 23 23 23 22 21 19 17 15 12 10 9 9 9 8 7 6 8 8 5 12 16 16 15 13 12 14 16 16 15 13 12 10 10 10 10 11 11 10 10 9 8 8 8 7 7 7 7 7 7 6 6 6 6 6 5 5 5 5 3 3 4 5 6 8 8 9 9 8 7 6 6 7 8 8 7 7 6 5 4 4 3 3 3 3 3 4 4 3
17 19 20 22 25 26 26 26 25 24 24 24 23 23 21 19 17 15 12 9 8 8 7 7 6 7 9 6 5 11 15 14 13 11 13 15 15 14 13 12 12 11 11 11 11 11 11 11 11 10 9 8 8 8 9 9 8 8 7 8 8 7 7 6 6 7 6 4 4 5 6 7 8 8 9 9 9 9 8 8 8 8 9 9 9 9 8 6 5 5 4 5 5 5 5 5 4
15 17 18 21 23 24 25 25 25 25 24 24 24 24 22 20 19 18 15 11 7 7 6 6 6 6 7 8 7 5 6 8 9 10 11 13 13 13 13 12 12 12 12 13 13 12 12 13 13 12 11 10 10 10 10 9 9 9 8 9 9 8 7 7 7 8 7 6 6 5 7 8 9 9 10 10 10 10 10 10 10 10 11 11 11 11 11 9 7 6 5 5 6 5 5 5 5
14 16 18 20 21 21 22 23 23 24 23 23 24 25 24 22 21 20 18 14 9 6 6 6 5 5 6 6 6 5 3 1 3 4 6 8 9 10 12 13 13 12 13 15 14 13 13 14 14 13 13 12 12 12 11 11 10 10 10 11 9 9 8 8 8 8 8 7 7 6 7 9 10 10 11 10 11 12 12 12 12 12 12 13 13 13 12 12 11 9 8 7 6 5 5 5 5
14 16 18 19 19 19 20 21 22 22 22 21 22 23 24 24 22 20 19 16 12 8 7 6 5 5 5 5 5 3 2 1 1 2 4 6 8 8 11 14 15 14 15 15 14 13 14 15 14 14 14 14 15 14 13 12 12 11 12 11 10 10 10 9 9 9 9 8 8 8 8 9 10 10 10 11 12 12 13 13 14 14 14 14 14 14 13 13 13 12 12 10 8 7 6 6 6
13 15 17 18 18 18 19 20 21 20 20 20 20 21 23 24 23 21 19 17 14 11 9 7 6 4 4 4 4 3 2 1 1 1 3 6 9 10 11 14 15 15 15 14 13 14 15 14 15 15 14 15 16 15 14 14 13 14 13 12 11 11 11 10 10 10 10 9 10 11 10 10 10 10 9 10 11 12 13 14 15 15 15 15 15 15 14 14 14 13 13 13 11 9 8 6 6
12 13 15 15 15 16 17 19 20 19 19 19 19 19 21 22 23 22 21 18 15 13 12 10 7 6 5 4 4 3 2 2 2 1 2 6 9 10 11 12 13 14 15 16 16 15 15 16 16 15 14 15 16 16 16 16 15 15 14 12 12 13 12 11 11 11 11 11 12 12 11 10 11 11 11 12 12 12 13 13 14 15 15 16 16 16 15 14 14 13 13 13 12 12 11 8 6
9 10 11 11 11 13 14 16 18 18 18 17 18 18 19 21 22 22 21 19 16 14 14 12 10 7 5 4 3 2 1 2 2 2 2 5 7 8 10 11 11 12 15 18 19 17 17 19 19 18 15 14 16 16 15 15 15 16 15 14 14 14 14 13 13 12 12 14 14 13 11 11 12 13 13 14 13 12 12 13 14 15 16 17 17 16 15 14 14 13 13 13 13 13 13 10 8
7 6 6 7 9 10 11 12 15 16 16 16 17 17 19 20 21 21 21 20 17 14 14 14 13 10 7 5 3 2 1 1 2 2 1 3 4 6 8 10 11 13 14 16 18 19 20 21 20 18 16 14 15 16 15 14 15 16 15 15 15 16 16 15 15 15 15 16 16 14 13 14 16 15 15 15 13 13 12 13 15 15 16 15 14 14 13 13 13 12 12 13 13 13 14 12 10
8 6 5 5 6 8 9 10 12 13 14 15 16 17 19 20 20 21 20 20 18 15 14 14 14 13 10 6 4 3 3 1 2 3 0 1 3 5 8 11 13 14 14 16 17 20 22 23 22 19 17 15 15 16 16 15 15 15 15 16 16 17 18 17 17 17 16 15 15 14 14 15 17 17 17 13 11 12 12 14 16 15 14 13 12 12 12 13 12 11 12 12 12 13 14 13 11
9 8 6 5 5 6 8 10 11 11 12 14 15 16 19 20 20 20 20 19 17 16 14 14 14 14 11 8 5 4 4 3 3 3 1 1 3 5 9 13 14 12 14 16 17 19 21 23 24 22 20 18 17 17 17 16 15 15 16 18 19 19 19 18 17 17 15 14 14 15 14 15 16 17 17 13 11 13 14 15 15 13 10 10 9 9 10 10 9 10 11 10 11 13 12 12 11
9 8 5 5 6 6 7 8 10 11 11 12 14 15 18 20 20 20 20 19 17 17 15 14 15 14 12 9 7 5 5 4 4 2 1 2 2 5 9 12 12 12 14 16 17 19 21 23 24 22 21 19 17 16 18 17 16 17 20 21 21 20 19 18 17 16 16 15 16 16 13 13 15 15 15 12 11 11 11 11 10 8 7 7 6 6 6 5 3 3 6 8 9 11 11 11 11
9 6 5 5 6 7 6 6 6 8 10 11 13 14 16 19 19 19 19 18 18 17 16 15 15 14 12 10 8 6 5 5 4 2 3 3 2 5 8 8 10 14 16 16 17 18 21 22 21 20 19 18 17 16 18 20 19 20 21 21 20 19 18 18 17 16 17 16 16 15 13 12 13 13 10 8 6 4 3 3 3 3 5 5 2 1 2 3 2 1 3 4 6 9 10 10 10
10 7 7 6 6 6 5 3 3 5 7 9 11 14 16 18 17 17 17 16 18 18 17 16 15 13 12 11 10 8 6 5 4 2 3 5 3 4 6 5 7 11 13 16 18 17 18 20 21 20 17 17 18 18 19 20 21 21 19 18 18 18 17 17 17 18 19 17 14 13 13 11 11 9 5 3 2 2 1 1 1 2 4 4 3 4 3 5 4 3 2 3 5 6 7 7 7
10 10 9 7 6 4 3 2 4 5 6 8 11 14 16 17 16 15 15 16 18 18 17 16 15 13 13 13 12 10 8 5 3 2 3 5 5 5 5 5 5 6 9 14 18 18 17 18 19 19 16 17 18 18 18 18 20 21 18 16 17 18 18 16 16 17 18 16 13 12 12 10 9 8 5 6 4 4 3 4 5 4 4 5 7 6 6 7 6 5 5 5 6 6 6 6 5
10 12 10 8 7 4 1 2 5 6 6 9 12 13 15 16 15 13 13 17 19 18 17 15 14 13 14 14 13 12 11 7 3 2 2 4 6 6 7 6 4 6 8 10 13 16 17 17 18 18 15 16 16 16 17 17 18 20 19 18 19 19 18 16 15 16 16 15 13 12 11 9 8 7 7 7 6 5 5 7 8 8 6 7 8 6 7 8 8 8 9 9 9 8 7 7 7
11 13 11 9 7 4 2 1 4 5 7 10 11 13 15 14 13 11 14 17 18 17 17 15 13 13 13 13 12 12 13 11 7 5 4 4 5 7 8 7 5 5 7 7 10 14 15 16 17 18 16 15 15 16 16 16 18 20 20 20 19 18 17 16 15 15 15 14 13 12 10 8 8 9 9 8 7 5 7 9 10 9 7 8 8 7 8 10 11 11 10 9 9 8 7 7 7
13 14 11 10 8 6 4 3 3 3 5 8 11 14 14 12 11 11 14 17 17 17 17 15 13 12 11 11 11 12 13 12 10 7 6 6 6 7 8 7 6 6 4 4 8 12 14 13 15 17 16 15 16 17 16 15 19 20 20 20 18 17 17 16 15 15 15 14 12 11 10 10 10 9 9 10 9 7 8 10 10 8 8 9 9 8 9 11 11 11 10 9 9 9 8 7 7
16 16 13 11 10 8 6 5 4 1 3 7 11 13 12 11 13 14 15 15 16 18 18 16 14 12 12 10 10 11 12 12 11 9 7 6 6 6 7 6 6 6 5 4 5 10 12 11 12 15 15 14 17 19 17 16 19 19 18 19 18 17 17 17 17 16 15 12 11 12 12 11 10 9 10 11 11 10 9 8 8 7 7 8 9 8 8 9 9 9 9 8 7 7 7 6 5
19 17 15 13 12 10 7 6 4 1 5 8 10 10 10 11 14 16 16 14 15 19 20 17 14 14 13 12 10 11 11 11 10 8 7 6 5 5 6 6 4 5 5 4 3 7 9 10 11 12 12 12 15 17 16 16 17 16 16 18 17 17 17 18 16 15 13 11 12 13 11 10 11 10 10 11 12 11 9 8 7 6 6 7 7 7 7 6 6 6 6 5 5 5 4 3 3
21 19 17 15 14 12 9 8 4 2 6 8 7 8 8 11 12 15 16 14 15 19 20 17 15 14 14 13 11 10 10 10 9 7 6 6 5 4 5 4 3 3 3 3 3 5 7 8 9 9 9 10 12 13 12 13 14 14 16 16 16 16 16 16 15 14 13 14 14 12 10 11 12 10 10 10 10 10 10 9 8 7 6 5 5 5 4 4 3 3 3 3 3 3 2 2 2
22 21 19 17 16 15 12 9 3 4 7 6 5 6 7 10 11 13 15 14 15 18 18 16 15 14 13 13 11 10 9 10 9 7 6 6 5 5 4 3 3 3 2 1 1 3 4 5 6 8 9 10 10 10 10 11 12 13 14 14 13 13 14 14 14 14 14 15 13 11 10 10 11 10 9 8 9 9 10 9 8 7 5 5 4 4 4 4 4 5 5 5 5 5 4 4 5
22 21 20 19 19 17 14 10 4 6 5 3 4 5 6 10 11 12 14 14 14 17 16 16 15 14 13 13 12 10 9 10 8 7 7 6 5 5 4 3 3 3 3 2 1 2 3 3 4 6 8 8 7 7 8 9 10 10 10 9 10 10 12 13 14 14 14 13 12 10 9 9 10 9 8 8 8 9 9 8 7 6 6 6 6 6 7 7 7 7 6 6 6 6 6 6 7
21 20 21 20 21 19 15 10 4 6 3 2 4 4 7 11 11 11 13 13 14 17 16 15 15 14 14 13 12 11 10 10 8 6 6 5 4 4 3 2 4 4 3 3 3 3 4 4 4 4 5 5 5 5 5 6 6 6 7 8 10 11 12 12 12 11 10 9 9 8 8 9 10 9 8 8 9 8 7 6 6 6 7 7 8 8 9 8 8 8 8 8 9 9 9 9 10
18 19 21 21 21 20 16 10 4 3 1 3 5 5 7 10 9 10 12 13 15 16 15 15 14 13 13 12 12 11 10 9 7 4 5 4 3 4 3 1 3 4 3 3 3 3 3 3 3 4 4 5 6 6 6 7 8 9 10 11 11 11 10 9 8 7 7 7 7 7 8 9 10 10 9 10 10 8 7 6 7 8 9 9 10 10 10 10 10 10 11 11 12 12 12 13 13
17 19 21 21 22 21 15 8 2 1 4 5 4 4 6 8 8 10 12 13 15 16 15 14 14 13 12 11 11 10 9 9 5 3 5 4 2 3 2 2 3 3 3 3 3 3 3 3 4 5 5 6 7 8 8 9 9 10 10 10 9 8 7 7 6 6 6 7 7 8 9 10 11 10 11 11 10 9 9 9 10 11 11 11 11 12 12 13 13 13 13 14 14 15 15 16 17
17 18 20 21 23 20 13 7 2 4 8 8 6 5 6 7 8 10 11 12 14 14 14 14 14 14 12 10 10 9 9 7 3 3 5 4 2 2 2 3 2 2 3 3 3 3 3 3 4 4 5 5 6 6 7 7 7 7 7 7 7 7 7 7 7 7 7 8 9 10 11 12 11 11 12 12 12 11 11 12 13 13 14 14 14 14 14 15 16 16 17 17 17 18 19 19 20
16 15 14 16 19 18 13 10 8 8 11 9 6 4 6 7 9 10 10 11 13 14 14 14 15 15 12 10 9 8 8 6 2 3 5 4 3 3 3 2 2 1 2 2 3 3 3 3 4 3 3 4 4 3 3 3 3 4 4 5 6 7 7 7 7 8 9 10 11 12 13 13 13 13 13 14 14 14 14 15 15 16 16 16 17 17 18 18 19 20 20 21 21 21 22 22 23
19 14 10 12 15 16 15 14 12 12 13 10 6 4 5 5 8 10 9 11 14 15 15 15 15 15 13 10 9 8 7 6 2 3 4 4 4 4 3 2 2 2 1 1 2 3 4 4 4 3 3 2 2 1 0 1 2 3 4 5 6 7 8 9 9 10 11 12 13 13 14 14 15 15 15 16 16 16 17 17 18 18 18 19 19 20 21 21 22 23 23 24 24 25 25 26 27
20 15 12 12 13 16 17 16 16 15 14 11 6 3 3 2 5 7 8 12 14 15 16 16 14 14 13 11 10 9 7 5 2 3 5 5 5 5 4 3 3 2 2 0 1 3 3 3 3 3 2 2 2 1 2 3 4 5 5 6 7 8 10 11 11 12 13 14 14 15 15 16 16 17 17 18 18 19 19 20 21 21 21 22 22 23 23 24 25 25 26 26 27 28 29 29 30
20 18 17 15 13 15 17 18 18 16 13 8 5 3 1 0 3 6 8 11 14 16 18 16 13 13 13 12 12 10 8 6 2 3 6 6 5 5 4 4 2 2 2 1 2 3 3 3 3 3 3 3 3 3 3 4 5 6 7 7 8 9 10 12 13 13 14 15 16 16 17 17 18 18 19 20 21 21 22 23 23 24 24 25 25 26 26 27 28 28 29 30 30 31 32 32 33
20 20 21 19 17 17 17 18 17 14 10 8 5 4 4 4 0 5 8 10 14 16 18 17 13 12 12 13 13 11 8 7 3 3 7 7 6 6 5 3 2 2 2 2 2 3 4 4 4 5 5 6 6 6 6 6 7 8 9 9 10 11 12 13 14 15 16 16 17 18 19 19 20 21 22 22 23 24 25 25 26 27 27 28 28 29 29 30 30 31 32 32 33 34 35 35 35
22 23 22 21 20 19 18 18 16 13 10 8 6 6 7 5 1 5 7 9 12 15 16 16 15 13 13 14 14 12 9 8 6 1 5 8 7 6 5 3 3 3 3 3 3 3 4 4 5 6 7 7 8 8 8 9 9 10 11 11 12 13 14 15 16 17 18 19 20 20 21 22 23 24 24 25 26 26 27 28 28 29 30 31 31 31 32 32 33 33 34 34 35 35 36 36 36
23 23 21 19 20 21 20 19 16 12 11 9 7 8 9 5 2 4 7 8 10 14 15 15 15 14 13 14 14 13 11 9 8 5 2 6 7 6 4 4 4 3 3 4 4 4 4 5 6 7 8 9 10 10 11 11 12 12 13 13 14 15 16 17 18 19 20 21 22 22 23 24 25 26 26 27 28 28 29 29 30 30 31 32 32 33 33 33 34 34 35 35 36 36 37 37 38
Wind_Direction
32 32 33 27 15 331 285 268 248 248 253 255 257 258 257 255 255 244 221 206 192 186 179 167 161 162 158 146 138 128 120 112 110 116 115 111 104 95 92 102 108 112 118 115 110 107 106 110 119 126 129 136 141 140 136 133 130 128 123 116 112 109 106 103 102 102 102 103 105 107 107 106 102 100 95 91 86 78 70 64 56 46 37 34 29 27 17 340 311 289 277 272 264 257 255 241 247
29 27 27 23 17 14 14 312 263 257 256 260 258 259 257 260 258 259 244 209 192 187 176 168 165 156 150 149 143 132 124 118 116 117 115 112 107 101 91 93 99 107 118 118 111 105 100 102 112 124 135 143 143 140 136 133 131 128 123 117 113 109 106 103 103 103 102 102 102 104 103 101 100 98 96 93 87 77 70 64 52 39 33 35 33 34 25 358 332 293 275 269 263 259 263 254 252
33 29 27 24 25 28 33 25 325 284 259 266 267 258 253 271 269 269 248 194 190 185 172 168 163 150 151 150 141 132 123 119 118 118 114 107 104 104 95 89 94 103 119 121 111 104 99 98 109 129 142 146 142 138 135 133 132 129 126 122 118 112 106 103 102 101 100 101 102 102 100 97 95 95 95 91 86 77 69 60 44 34 32 35 32 27 14 4 357 319 289 269 265 273 286 274 260
38 36 32 27 35 37 34 27 4 319 265 269 267 254 250 270 269 257 180 176 184 176 167 164 157 152 153 145 137 132 126 125 120 117 116 107 99 100 98 91 94 104 124 125 116 107 104 103 111 130 141 145 140 136 134 133 132 129 127 127 123 116 111 107 103 101 101 102 103 102 99 97 95 93 90 85 80 74 67 56 39 32 35 37 33 29 20 16 20 360 320 288 280 286 281 262 258
39 37 33 29 37 38 31 23 16 7 314 288 269 253 248 248 240 235 195 179 177 168 164 159 152 152 150 144 140 135 133 136 127 119 116 109 99 95 97 94 95 105 128 132 124 117 113 112 114 123 131 136 135 135 134 132 131 129 129 128 123 118 114 110 107 104 103 104 104 103 101 98 94 89 84 79 75 71 66 54 40 36 37 36 37 38 34 31 33 23 336 322 303 277 268 251 249
36 32 29 28 37 37 30 23 20 19 7 354 313 262 237 231 227 219 205 187 171 164 163 157 153 153 149 146 140 136 138 140 134 122 118 113 102 93 94 94 96 106 130 137 132 127 122 120 118 119 119 122 128 132 131 130 130 129 128 123 118 115 114 113 110 107 105 104 105 106 103 98 93 88 83 80 76 72 66 53 43 41 39 35 36 37 39 42 46 42 21 358 332 263 259 252 249
35 31 25 23 31 33 30 27 24 20 12 5 345 267 221 212 201 197 208 186 166 160 160 158 156 153 146 146 141 138 139 135 148 128 124 123 106 97 93 94 98 106 126 139 138 134 127 126 122 120 119 117 119 122 124 124 125 124 122 118 114 112 111 109 104 101 98 98 102 109 109 106 102 96 89 82 77 72 62 51 46 46 41 35 33 34 39 47 59 62 56 34 9 12 251 255 255
33 30 24 19 21 26 29 29 26 19 13 4 349 264 197 183 176 184 199 172 162 159 159 157 156 153 147 149 145 142 141 129 161 136 130 138 110 102 95 93 98 105 120 135 140 139 133 133 129 126 123 119 118 118 117 117 119 118 117 114 110 106 101 98 94 91 89 92 95 99 101 102 102 97 90 83 77 69 55 45 44 46 43 39 39 37 41 47 56 63 66 56 20 35 61 273 262
29 27 22 16 16 25 31 29 29 20 13 10 17 50 174 184 177 174 173 168 165 164 162 158 158 156 151 150 145 146 144 129 149 133 128 144 115 107 99 93 95 101 110 127 140 142 139 138 134 132 128 123 121 119 116 116 117 115 113 110 106 101 97 94 92 90 89 90 89 89 89 89 88 87 85 82 77 68 54 46 43 44 41 43 47 43 47 53 56 59 61 60 34 31 46 52 316
27 25 21 16 16 30 35 31 30 24 23 33 50 44 18 226 195 168 163 169 167 168 164 161 161 160 156 150 147 151 146 137 141 127 130 146 120 113 106 96 92 94 100 116 136 142 142 143 136 137 136 130 126 122 120 121 119 117 114 110 107 104 103 101 98 95 91 88 84 81 79 78 78 78 79 80 78 70 59 52 47 45 42 46 51 51 58 66 65 64 61 56 46 33 31 42 61
30 27 26 21 20 34 41 39 36 35 40 53 71 32 21 318 198 160 155 166 168 170 166 164 164 161 162 153 147 153 152 144 135 129 140 145 123 118 113 104 98 93 94 106 123 136 141 142 136 138 140 135 130 127 128 127 125 122 120 116 112 109 106 104 101 96 91 86 82 78 75 73 72 71 72 76 76 69 60 55 54 52 49 55 57 59 68 78 80 79 76 67 61 45 23 23 38
38 35 35 33 30 41 49 47 44 44 50 59 64 29 33 75 185 157 150 162 169 172 168 168 164 158 163 154 147 155 159 147 132 137 146 137 125 121 116 110 109 104 99 102 111 124 133 136 132 136 139 135 135 134 135 134 131 129 126 121 115 109 103 97 93 88 83 79 76 75 74 73 69 65 63 68 70 64 57 49 52 57 57 63 66 67 74 81 87 91 91 88 87 71 43 25 24
51 51 51 53 47 51 56 51 49 47 53 62 56 39 40 54 154 158 159 165 168 174 174 173 163 156 159 155 152 157 160 147 134 143 147 135 127 123 121 115 114 113 109 105 107 115 122 126 126 130 134 135 138 138 139 138 135 132 127 119 110 103 95 88 83 79 75 72 71 71 73 73 70 66 63 64 67 67 58 45 47 59 61 69 74 71 74 77 84 97 98 93 93 87 71 52 46
62 63 62 65 61 61 61 55 56 54 57 63 58 54 58 65 95 141 165 169 169 175 181 179 167 157 156 157 154 153 152 146 138 140 143 136 131 129 127 123 121 120 118 113 109 111 116 119 120 125 132 134 136 134 134 135 132 128 123 115 105 96 89 83 79 75 74 73 74 75 76 77 76 73 68 66 73 73 60 48 52 64 61 68 78 75 76 72 77 93 97 93 91 91 89 80 81
64 67 68 70 68 64 61 57 58 62 62 62 61 61 77 95 91 116 154 168 167 173 186 181 169 162 161 160 153 150 147 147 145 140 141 136 134 136 132 131 129 128 126 122 116 114 115 117 118 122 127 128 127 124 120 119 120 117 114 109 101 95 88 83 79 76 75 75 77 79 81 82 83 79 71 67 70 72 63 57 62 70 65 66 73 76 78 74 76 88 87 86 86 83 91 91 90
65 67 68 69 67 63 58 54 54 60 65 62 65 66 78 100 103 125 137 157 161 174 194 182 171 168 165 161 152 149 147 151 149 142 145 142 140 143 138 137 137 136 135 132 125 121 120 117 119 122 123 122 120 118 113 110 109 107 105 102 98 94 91 87 83 80 78 78 78 79 80 79 78 75 72 67 58 60 63 64 71 76 70 66 66 68 71 74 81 89 84 84 90 76 79 92 94
67 67 66 67 64 62 56 50 47 50 59 63 66 70 77 95 109 120 118 134 151 166 197 183 175 169 161 162 156 150 148 152 154 150 152 150 150 150 147 148 148 148 144 142 135 128 126 120 118 118 117 116 114 112 110 108 104 101 99 96 95 93 92 90 88 86 83 81 78 76 74 72 70 65 64 60 51 51 61 69 80 84 75 64 62 64 63 63 66 75 86 90 102 92 78 95 101
68 68 66 67 63 59 56 49 43 43 51 60 65 71 79 92 106 112 106 110 123 126 196 190 179 172 163 166 165 155 152 157 160 160 161 158 157 158 158 156 156 156 154 152 145 136 131 124 120 116 113 110 110 108 105 104 100 97 94 90 90 89 89 88 88 87 85 82 77 74 70 69 66 61 56 54 50 47 62 72 85 97 85 72 62 58 54 46 36 37 68 80 94 99 92 102 107
69 69 65 65 62 57 55 51 45 42 45 55 62 69 77 85 93 98 96 98 102 94 157 195 185 181 169 168 175 169 164 167 169 169 169 168 165 165 166 163 163 165 162 158 150 144 137 132 129 122 118 112 111 107 100 97 91 89 87 85 83 82 81 79 79 78 77 75 70 67 65 66 65 59 54 52 49 39 53 61 62 92 93 86 77 48 30 32 20 16 48 59 60 80 90 100 101
71 71 67 65 61 56 55 55 51 46 45 52 61 66 70 77 86 90 89 86 81 73 63 156 191 193 182 179 185 185 182 180 181 178 176 177 174 172 171 170 171 169 163 160 156 152 147 145 144 138 137 134 125 112 100 94 88 79 75 76 75 74 73 68 68 66 64 63 57 52 45 45 47 47 45 46 38 21 39 44 33 47 89 99 93 72 23 28 31 31 62 56 43 49 69 90 87
75 72 69 66 62 57 56 58 56 53 51 54 60 65 67 69 77 84 84 79 73 66 60 85 181 206 200 196 194 193 194 196 196 187 186 188 183 179 176 172 173 171 168 169 166 162 162 160 157 155 154 152 148 138 128 120 106 90 73 71 69 67 66 61 58 52 50 47 35 25 16 13 14 14 16 24 18 359 18 29 11 13 28 44 97 104 67 31 28 34 67 64 45 35 48 73 77
81 74 71 68 63 60 59 60 60 59 58 58 60 63 66 66 67 72 78 77 71 65 57 68 145 199 206 208 207 203 199 203 210 200 198 200 190 185 183 178 179 183 183 180 173 167 169 171 170 168 166 166 168 167 171 178 172 159 143 146 153 86 17 360 8 351 354 2 355 347 345 346 350 353 353 354 355 349 357 7 357 353 17 9 15 68 85 44 7 3 48 58 32 23 34 41 52
87 79 73 69 65 63 62 61 61 62 61 61 60 60 62 62 63 65 72 75 69 63 56 50 62 178 193 204 210 214 212 208 214 211 208 208 199 193 192 192 193 192 189 184 181 175 174 177 181 183 181 181 183 186 191 199 203 203 207 217 228 238 252 266 270 276 296 314 317 321 328 328 330 337 340 338 338 340 342 344 340 342 359 360 350 346 338 345 355 337 344 13 5 358 4 8 18
91 83 76 71 68 66 64 61 61 62 61 61 61 59 58 58 60 63 69 75 71 63 57 47 40 89 164 201 208 215 218 211 218 221 214 211 208 205 203 204 206 202 194 190 191 189 184 184 187 193 196 195 195 199 204 209 211 210 211 218 229 237 246 257 266 270 275 284 296 308 316 316 319 328 332 329 327 328 330 331 330 336 344 345 340 334 328 324 331 315 309 345 356 348 344 343 346
92 86 81 77 73 70 65 62 61 60 59 59 59 58 57 57 57 57 61 69 72 66 58 51 43 68 90 179 209 218 220 210 217 225 217 212 211 214 213 213 215 211 208 204 203 202 196 194 196 200 205 206 205 209 215 221 222 218 217 220 227 233 240 251 262 270 272 273 283 291 297 303 312 322 324 321 320 320 325 326 327 333 335 333 330 326 323 320 320 304 285 317 332 330 331 331 329
92 88 84 82 79 76 70 63 59 57 56 56 56 56 55 55 54 50 49 54 66 70 66 59 50 65 71 77 163 209 217 214 221 227 218 213 214 219 221 220 218 215 215 216 214 212 208 205 206 207 209 211 211 214 220 226 229 228 227 229 232 235 239 248 259 268 279 289 286 283 291 299 306 311 311 311 314 317 324 328 328 331 329 325 323 320 315 312 314 308 290 297 305 304 314 322 323
91 87 85 85 85 83 76 67 58 53 51 52 52 52 51 51 50 47 43 42 52 66 71 71 64 70 72 65 83 135 187 209 225 226 220 222 224 226 229 231 229 223 219 220 223 222 220 217 215 214 214 216 217 219 223 227 230 232 234 236 238 241 242 245 255 266 278 286 286 286 294 297 300 302 303 306 311 315 320 324 325 326 323 319 317 315 310 302 299 297 293 295 298 291 296 308 307
91 87 85 87 89 87 78 68 61 53 47 47 48 49 48 46 45 44 41 37 40 56 61 69 79 87 85 72 69 77 95 161 235 241 236 240 240 235 235 236 239 239 231 227 228 229 231 230 227 223 220 222 224 224 225 228 229 229 234 239 239 240 243 245 251 260 266 273 280 284 285 286 290 294 298 304 307 310 313 315 317 317 314 310 308 308 306 299 289 281 279 284 290 281 278 296 292
95 91 88 89 89 84 75 66 61 56 48 45 45 46 45 43 42 40 37 35 34 43 46 47 67 95 100 89 81 74 65 48 10 331 301 277 259 243 234 233 237 242 242 237 230 230 236 239 239 237 232 229 231 231 230 233 234 233 236 240 239 238 240 243 248 253 258 266 272 271 266 267 274 281 289 297 299 301 304 308 310 309 306 302 299 299 299 296 287 277 272 271 274 266 260 281 284
104 101 96 93 90 84 77 67 59 54 49 46 43 42 41 40 38 36 34 32 32 36 38 33 40 68 89 90 85 84 88 82 59 348 302 274 256 245 234 233 237 240 242 242 235 231 234 240 245 247 244 239 238 237 236 238 240 241 241 242 242 243 243 243 246 250 257 262 263 262 261 263 268 273 280 285 288 290 295 302 304 302 300 297 293 292 293 291 284 276 268 264 263 257 247 256 267
114 110 105 101 95 89 83 73 63 55 48 45 42 39 37 35 34 34 32 30 30 33 34 30 29 43 58 64 71 72 84 106 124 153 266 259 255 252 245 240 242 242 239 235 234 232 233 238 241 244 245 241 241 241 241 243 245 248 248 246 247 251 252 251 252 256 260 261 261 262 265 272 277 278 279 276 275 280 286 292 294 294 294 294 291 288 289 287 282 274 267 262 258 255 248 248 254
128 121 116 109 99 93 87 79 71 60 48 43 39 36 34 32 30 30 30 27 27 29 30 28 25 30 38 37 44 55 79 128 143 149 238 263 266 265 259 254 253 252 243 236 236 236 235 236 236 238 240 240 240 243 248 252 252 254 253 252 254 258 261 262 262 262 264 265 267 272 278 286 288 283 279 279 278 277 278 279 280 283 288 290 287 287 289 286 280 273 267 262 254 249 245 242 247
152 143 130 117 106 98 88 82 78 68 55 42 34 31 30 30 28 26 26 24 23 24 26 26 24 23 25 20 13 7 348 163 136 132 202 272 279 271 264 256 250 247 242 236 237 239 237 235 234 234 236 239 239 241 250 256 257 258 259 259 261 264 264 264 265 265 266 268 270 278 287 290 292 286 274 272 277 278 276 272 272 277 283 285 286 290 291 283 279 273 265 258 249 242 237 233 240
157 152 143 129 117 105 89 80 76 69 64 51 34 26 24 26 25 22 20 19 18 19 20 23 24 23 22 13 355 343 338 360 80 85 119 271 259 254 254 249 246 245 241 234 233 238 240 238 235 231 231 236 238 241 245 247 253 259 266 270 270 269 266 263 266 270 276 280 276 280 287 289 293 290 278 273 278 280 277 273 271 274 279 285 290 292 287 280 278 273 265 258 247 241 234 227 235
150 152 152 130 107 97 86 75 67 60 59 54 37 23 19 20 20 18 14 12 13 13 15 18 19 21 22 16 355 338 338 1 46 59 33 286 263 250 246 245 248 250 247 242 237 239 243 242 238 233 232 236 238 243 244 242 250 259 266 273 274 274 270 264 267 275 283 288 284 282 287 291 292 289 288 291 289 280 276 272 267 264 272 288 291 288 285 281 276 264 258 256 243 239 234 224 232
156 160 163 126 100 94 88 76 65 54 47 44 33 19 15 15 15 15 12 11 13 10 8 10 11 15 20 17 2 343 340 360 27 36 336 290 267 260 249 247 258 259 247 242 239 239 241 242 241 239 237 238 239 244 248 248 253 259 261 263 269 275 274 270 273 282 286 287 287 286 288 293 290 287 292 296 287 275 271 263 254 254 268 284 287 284 292 298 303 260 249 250 236 225 221 218 226
174 175 177 145 113 101 95 84 69 57 44 35 25 15 13 12 10 14 12 13 17 11 2 2 5 11 17 15 3 348 341 352 19 22 326 308 270 269 264 259 272 265 246 236 232 233 237 238 238 239 239 241 244 246 251 257 261 259 259 263 268 274 275 274 275 278 278 278 282 285 289 292 288 287 289 286 273 258 245 242 250 262 259 265 272 265 318 10 52 138 209 229 214 201 202 211 223
192 197 187 164 133 116 105 90 55 44 38 29 20 12 11 10 7 13 15 17 20 13 2 358 360 5 10 8 357 347 339 348 28 34 318 318 309 289 288 287 284 266 243 231 227 228 235 234 230 233 238 243 247 249 252 261 264 255 256 271 274 271 269 269 270 271 271 272 277 283 285 285 281 275 260 218 217 207 154 196 243 222 222 215 162 143 110 81 93 129 152 176 179 181 188 199 214
200 206 192 179 175 164 134 73 12 7 14 22 18 10 10 9 7 13 19 21 20 15 7 359 356 357 358 356 348 338 332 337 30 33 311 317 316 312 322 325 304 266 237 227 223 225 232 229 228 232 238 242 245 251 255 258 260 253 253 270 272 267 264 261 262 265 267 271 279 283 279 276 267 247 196 162 189 208 170 167 169 156 170 167 148 137 114 99 99 106 114 125 133 137 146 159 169
204 203 192 193 203 200 152 31 353 348 358 9 13 12 11 7 4 13 23 23 21 18 13 2 354 351 350 349 340 330 326 321 326 322 301 308 312 322 339 345 315 258 244 231 220 224 231 228 226 228 233 241 244 253 258 257 258 255 255 262 263 260 259 257 256 260 265 270 274 275 269 262 246 214 171 158 183 191 157 149 143 132 136 143 141 127 107 103 102 106 111 110 111 113 120 131 135
203 195 190 199 207 206 201 303 334 345 357 0 9 15 12 4 2 16 26 24 20 19 15 4 357 352 347 347 337 326 324 319 311 303 303 311 320 333 340 344 331 281 256 239 222 223 230 229 227 227 232 241 243 248 253 252 254 254 255 258 260 258 254 252 254 259 264 267 267 263 250 231 211 187 166 158 167 172 152 142 131 125 130 131 133 127 111 109 109 111 114 113 114 114 115 121 124
195 191 194 203 207 206 214 256 303 340 7 6 15 20 16 8 11 23 25 21 18 17 14 6 359 352 346 343 334 325 323 319 310 299 303 319 329 340 342 340 336 322 294 254 230 217 218 225 227 227 238 246 242 243 247 248 250 251 254 257 259 258 250 244 250 256 261 262 256 240 215 199 191 178 167 158 158 162 152 142 135 131 126 120 123 124 116 113 115 117 120 121 120 116 117 118 116
187 191 200 209 210 212 223 254 284 343 54 39 27 24 28 25 20 22 18 15 17 17 14 7 358 352 350 347 339 330 324 317 308 298 301 317 327 337 336 333 335 336 327 296 244 216 214 222 222 223 236 244 239 241 247 252 251 249 253 255 253 250 242 237 242 249 254 250 228 204 191 190 185 173 165 158 157 160 154 148 147 140 127 119 121 124 121 117 118 122 124 122 117 114 117 116 112
186 194 205 215 219 223 233 247 272 32 79 59 35 22 36 38 21 17 15 13 21 21 12 3 358 356 358 357 349 340 329 316 305 297 295 304 316 329 328 326 333 338 330 309 259 224 221 225 222 224 235 241 240 242 245 252 255 251 252 250 246 242 232 227 232 241 241 218 192 186 187 188 179 170 169 163 157 159 160 162 159 150 140 132 129 131 132 128 129 131 129 126 124 124 128 126 123
193 202 210 220 226 233 239 246 267 82 81 58 30 7 29 41 21 15 18 17 26 25 10 359 359 359 0 359 350 340 329 317 304 290 282 286 299 317 326 334 347 357 347 317 270 234 229 229 226 228 238 241 244 245 245 251 254 253 252 247 243 237 225 219 223 226 212 187 179 182 182 180 177 178 179 168 161 162 166 170 169 166 160 154 149 146 146 146 152 157 155 161 166 168 180 186 199
204 211 214 221 228 237 242 244 246 100 83 45 5 341 11 35 21 11 15 20 29 27 10 360 0 358 360 360 348 334 325 319 305 280 266 270 287 311 328 351 17 40 46 360 285 229 222 223 218 220 228 236 241 244 248 251 249 248 249 244 239 229 215 211 209 200 185 176 177 179 179 181 186 191 188 177 173 173 176 178 176 175 179 185 186 186 196 203 209 210 207 210 212 215 222 230 239
214 216 216 221 229 241 246 241 208 110 89 23 340 329 355 18 16 11 14 21 30 25 10 0 1 357 358 359 350 337 325 320 307 275 257 260 282 307 324 6 42 61 67 56 85 167 179 186 198 207 214 221 230 236 241 242 239 238 235 224 214 202 192 190 188 183 180 177 176 176 183 191 197 202 198 192 193 190 189 188 183 187 199 211 218 221 223 224 228 233 238 242 244 246 249 250 254
217 217 220 225 233 244 248 241 199 125 101 333 315 332 2 5 3 8 16 21 24 19 8 358 357 355 354 353 349 342 330 324 313 273 249 253 281 301 313 29 65 70 67 68 94 125 140 150 168 185 192 195 198 203 209 211 204 191 178 170 167 166 169 175 179 182 184 181 178 182 193 200 204 207 206 207 211 208 206 206 206 214 221 227 236 240 244 246 250 256 260 264 267 268 268 267 266
218 220 226 231 237 245 245 241 219 156 185 296 304 331 358 353 349 359 11 16 14 12 6 356 353 350 347 345 341 340 336 330 318 265 236 243 275 297 295 104 90 76 69 69 77 96 112 119 128 138 150 157 156 155 157 154 149 145 143 145 150 156 164 172 182 192 194 195 198 201 207 212 214 214 216 220 223 224 226 230 233 238 240 244 250 256 260 262 263 264 264 266 268 269 269 270 271
219 223 230 235 239 242 243 245 266 238 242 263 286 315 347 348 346 348 359 11 11 9 6 359 354 345 341 340 335 335 339 336 321 248 220 223 251 279 263 182 120 89 84 82 64 64 83 91 100 110 123 136 140 141 141 140 138 137 138 144 152 161 170 179 193 207 214 217 219 220 223 226 226 225 227 230 234 238 240 241 244 248 251 253 257 260 264 267 268 268 268 267 268 268 269 269 270
219 223 231 237 238 237 238 238 238 249 245 250 263 285 330 343 342 341 358 14 10 9 10 4 357 344 337 339 334 332 342 344 331 227 208 203 220 232 195 172 146 106 94 83 58 52 67 77 83 90 97 109 120 129 135 136 138 142 146 155 165 177 188 200 214 224 228 228 227 229 233 237 238 237 239 242 245 248 249 250 253 257 260 263 264 265 267 269 271 271 270 270 269 269 270 271 272
217 220 230 234 233 231 232 227 219 230 237 242 257 282 319 342 358 1 14 21 12 11 12 6 1 351 346 347 340 338 348 354 352 214 201 192 191 174 160 165 174 147 100 74 54 50 54 58 61 66 73 81 96 110 123 139 157 170 176 182 189 199 212 226 239 245 244 239 235 235 239 245 248 247 248 251 253 256 258 260 262 265 268 271 272 273 273 272 272 272 272 272 272 272 272 272 273
212 212 216 220 223 226 229 231 232 233 233 243 271 302 311 340 18 21 24 23 15 15 13 8 5 2 2 5 0 355 358 7 33 187 192 190 188 179 176 185 186 185 153 53 42 44 45 48 47 45 45 46 51 57 262 244 244 239 232 228 225 230 241 253 260 260 257 253 248 247 248 251 254 256 258 259 261 264 266 268 270 271 272 273 274 274 274 273 272 272 272 273 273 274 274 274 274
207 205 206 208 217 223 224 227 234 235 232 244 272 295 302 343 35 30 25 23 17 14 12 9 9 8 11 17 18 13 10 19 57 179 186 187 185 181 183 180 177 197 212 290 10 23 25 29 29 23 16 3 344 313 290 277 272 266 262 260 259 261 264 268 270 267 265 263 261 259 257 257 259 261 264 267 269 271 272 274 275 276 276 276 276 275 274 274 273 273 273 273 273 273 273 274 274
201 201 206 205 208 221 223 222 227 230 232 245 269 280 273 164 50 31 28 24 18 13 10 10 11 11 16 27 30 26 21 20 37 178 184 185 183 183 182 179 193 225 238 273 336 354 350 349 350 343 331 317 304 295 292 289 286 282 279 277 274 273 274 273 273 272 270 269 268 268 267 267 268 269 270 272 274 275 276 277 278 278 278 278 277 277 276 276 275 275 275 275 275 275 274 274 274
199 202 208 205 204 211 214 216 219 220 226 242 256 246 209 190 115 31 33 23 16 13 11 13 14 13 20 34 38 36 29 19 16 180 186 184 184 189 188 188 218 243 258 281 312 324 319 318 318 316 311 305 302 301 299 295 291 287 285 283 282 279 278 277 277 277 276 274 274 274 274 274 275 275 276 276 277 277 278 279 280 280 280 280 279 279 278 278 277 276 276 276 275 275 275 274 274
199 204 209 208 207 208 207 208 210 209 220 236 237 213 195 196 280 24 30 20 14 12 12 14 16 15 22 33 35 36 35 27 21 44 189 186 187 193 190 196 218 231 243 259 279 288 292 300 305 307 306 304 304 303 299 295 290 288 287 286 285 284 282 281 280 280 280 279 279 279 279 279 279 279 279 279 279 279 280 281 281 282 282 282 281 281 280 280 279 279 278 278 278 278 278 278 278
203 206 209 207 206 208 208 206 203 205 216 225 222 202 197 213 313 8 14 13 15 11 7 7 9 13 21 28 30 33 34 33 36 40 150 185 192 195 192 205 222 229 240 252 264 273 283 297 302 302 301 301 301 300 297 295 294 293 292 290 288 285 284 283 282 282 282 282 283 283 283 283 283 283 283 282 282 282 282 282 282 282 282 282 282 282 282 282 282 282 282 282 282 282 283 284 285